Terminal Aerodrome Forecast
Issued by NWS Blacksburg, VA

Current Version | Previous Version | Text Only | Print | Product List | Glossary Off
Versions: 1 2 3 4 5 6 7 8 9 10 11 12 13 14 15 16 17 18 19 20 21 22 23 24 25 26 27 28 29 30 31 32 33 34 35 36 37 38 39 40 41 42 43 44 45 46 47 48 49 50

000
FTUS41 KRNK 231008 AAE
TAFBLF
TAF AMD
KBLF 231008Z 2310/2406 14010G20KT P6SM SCT002 OVC035
      TEMPO 2310/2312 12006KT BKN008
     FM231500 15008KT P6SM SCT007 BKN025 OVC040
      TEMPO 2315/2318 BKN007
     FM240000 15008G20KT 4SM -RA BR SCT004 OVC007=

USA.gov is the U.S. government's official web portal to all federal, state and local government web resources and services.